When you browse on this site, cookies collect data to enhance your experience and personalize the content and advertising you see.
Visit our Privacy Policy to learn more. By continuing to use the site, you agree to this use of cookies and data.
  • In Romania
  • List of Countries
  • For 7 days
  • Water Temperature
  • Weather Map
  • Weather Widgets
  • user-avatar
    Login

    Hourly Weather Porto Alegre

    Today, 20 September, Friday

    Time Temperature Precipitation Wind Pressure Humidity
    00:00 +19°C° 0 mm 2 mps 754 mmHg 78%
    01:00 +18°C° 0 mm 2 mps 754 mmHg 77%
    02:00 +18°C° 0 mm 2 mps 755 mmHg 77%
    03:00 +17°C° 0 mm 2 mps 755 mmHg 75%
    04:00 +16°C° 0 mm 2 mps 755 mmHg 78%
    05:00 +14°C° 0 mm 3 mps 756 mmHg 81%
    06:00 +14°C° 0 mm 4 mps 757 mmHg 84%
    07:00 +14°C° 0 mm 4 mps 758 mmHg 79%
    08:00 +14°C° 0 mm 4 mps 759 mmHg 75%
    09:00 +15°C° 0 mm 4 mps 760 mmHg 70%
    10:00 +15°C° 0 mm 4 mps 760 mmHg 65%
    11:00 +17°C° 0 mm 3 mps 761 mmHg 60%
    12:00 +18°C° 0 mm 3 mps 761 mmHg 55%
    13:00 +18°C° 0 mm 4 mps 761 mmHg 53%
    14:00 +18°C° 0 mm 4 mps 761 mmHg 51%
    15:00 +17°C° 0 mm 5 mps 761 mmHg 49%
    16:00 +17°C° 0 mm 4 mps 761 mmHg 50%
    17:00 +15°C° 0 mm 4 mps 761 mmHg 51%
    18:00 +13°C° 0 mm 3 mps 762 mmHg 52%
    19:00 +13°C° 0 mm 3 mps 762 mmHg 54%
    20:00 +12°C° 0 mm 3 mps 763 mmHg 55%
    21:00 +13°C° 0 mm 2 mps 764 mmHg 56%
    22:00 +12°C° 0 mm 2 mps 764 mmHg 58%
    23:00 +12°C° 0 mm 2 mps 764 mmHg 60%

    Tomorrow, 21 September, Saturday

    Time Temperature Precipitation Wind Pressure Humidity
    00:00 +12°C° 0 mm 2 mps 764 mmHg 62%
    01:00 +12°C° 0 mm 2 mps 764 mmHg 64%
    02:00 +10°C° 0 mm 2 mps 764 mmHg 66%
    03:00 +11°C° 0 mm 1 mps 763 mmHg 68%
    04:00 +11°C° 0 mm 1 mps 763 mmHg 69%
    05:00 +11°C° 0 mm 1 mps 764 mmHg 70%
    06:00 +11°C° 0 mm 1 mps 764 mmHg 71%
    07:00 +12°C° 0 mm 1 mps 764 mmHg 66%
    08:00 +14°C° 0 mm 2 mps 764 mmHg 62%
    09:00 +16°C° 0 mm 2 mps 764 mmHg 57%
    10:00 +17°C° 0 mm 2 mps 764 mmHg 54%
    11:00 +18°C° 0 mm 2 mps 764 mmHg 52%
    12:00 +20°C° 0 mm 3 mps 764 mmHg 49%
    13:00 +20°C° 0 mm 3 mps 763 mmHg 49%
    14:00 +20°C° 0 mm 3 mps 762 mmHg 50%
    15:00 +20°C° 0 mm 3 mps 762 mmHg 51%
    16:00 +19°C° 0 mm 3 mps 762 mmHg 55%
    17:00 +18°C° 0 mm 3 mps 762 mmHg 60%
    18:00 +17°C° 0 mm 3 mps 762 mmHg 65%
    19:00 +16°C° 0 mm 3 mps 763 mmHg 69%
    20:00 +14°C° 0 mm 3 mps 763 mmHg 72%
    21:00 +13°C° 0 mm 3 mps 764 mmHg 76%
    22:00 +14°C° 0 mm 2 mps 764 mmHg 78%
    23:00 +14°C° 0 mm 2 mps 764 mmHg 81%

    Day after tomorrow, 22 September, Sunday

    Time Temperature Precipitation Wind Pressure Humidity
    00:00 +13°C° 0 mm 1 mps 765 mmHg 83%
    01:00 +13°C° 0 mm 1 mps 765 mmHg 85%
    02:00 +13°C° 0 mm 1 mps 764 mmHg 86%
    03:00 +12°C° 0 mm 0 mps 764 mmHg 87%
    04:00 +11°C° 0 mm 0 mps 765 mmHg 88%
    05:00 +11°C° 0 mm 0 mps 765 mmHg 88%
    06:00 +11°C° 0 mm 0 mps 766 mmHg 89%
    07:00 +12°C° 0 mm 0 mps 766 mmHg 82%
    08:00 +14°C° 0 mm 0 mps 767 mmHg 74%
    09:00 +16°C° 0 mm 0 mps 767 mmHg 67%
    10:00 +19°C° 0 mm 1 mps 767 mmHg 60%
    11:00 +19°C° 0 mm 2 mps 767 mmHg 52%
    12:00 +20°C° 0 mm 4 mps 767 mmHg 45%
    13:00 +20°C° 0 mm 4 mps 767 mmHg 47%
    14:00 +20°C° 0 mm 4 mps 767 mmHg 50%
    15:00 +20°C° 0 mm 5 mps 767 mmHg 53%
    16:00 +19°C° 0 mm 5 mps 767 mmHg 55%
    17:00 +18°C° 0 mm 4 mps 767 mmHg 56%
    18:00 +15°C° 0 mm 4 mps 768 mmHg 58%
    19:00 +14°C° 0 mm 4 mps 768 mmHg 59%
    20:00 +13°C° 0 mm 4 mps 768 mmHg 61%
    21:00 +12°C° 0 mm 4 mps 769 mmHg 62%
    22:00 +12°C° 0 mm 3 mps 769 mmHg 65%
    23:00 +12°C° 0 mm 3 mps 769 mmHg 67%

    23 September, Monday

    Time Temperature Precipitation Wind Pressure Humidity
    00:00 +11°C° 0 mm 3 mps 768 mmHg 70%
    01:00 +11°C° 0 mm 3 mps 768 mmHg 71%
    02:00 +11°C° 0 mm 3 mps 768 mmHg 73%
    03:00 +11°C° 0 mm 3 mps 767 mmHg 75%
    04:00 +11°C° 0 mm 3 mps 767 mmHg 76%
    05:00 +11°C° 0 mm 3 mps 767 mmHg 76%
    06:00 +11°C° 0 mm 3 mps 767 mmHg 77%
    07:00 +12°C° 0 mm 3 mps 767 mmHg 71%
    08:00 +14°C° 0 mm 4 mps 767 mmHg 65%
    09:00 +15°C° 0 mm 4 mps 767 mmHg 58%
    10:00 +18°C° 0 mm 4 mps 767 mmHg 54%
    11:00 +19°C° 0 mm 4 mps 766 mmHg 50%
    12:00 +21°C° 0 mm 4 mps 766 mmHg 45%
    13:00 +21°C° 0 mm 4 mps 765 mmHg 46%
    14:00 +21°C° 0 mm 4 mps 765 mmHg 46%
    15:00 +22°C° 0 mm 5 mps 764 mmHg 47%
    16:00 +20°C° 0 mm 5 mps 764 mmHg 52%
    17:00 +19°C° 0 mm 5 mps 763 mmHg 57%
    18:00 +17°C° 0 mm 5 mps 763 mmHg 62%
    19:00 +17°C° 0 mm 4 mps 763 mmHg 65%
    20:00 +15°C° 0 mm 4 mps 763 mmHg 68%
    21:00 +16°C° 0 mm 3 mps 763 mmHg 72%
    22:00 +14°C° 0 mm 3 mps 763 mmHg 73%
    23:00 +15°C° 0 mm 2 mps 763 mmHg 74%

    24 September, Tuesday

    Time Temperature Precipitation Wind Pressure Humidity
    00:00 +15°C° 0 mm 2 mps 762 mmHg 75%
    01:00 +15°C° 0 mm 2 mps 762 mmHg 75%
    02:00 +15°C° 0 mm 1 mps 762 mmHg 76%
    03:00 +14°C° 0 mm 1 mps 762 mmHg 77%
    04:00 +14°C° 0 mm 1 mps 762 mmHg 77%
    05:00 +14°C° 0 mm 1 mps 762 mmHg 77%
    06:00 +13°C° 0 mm 0 mps 761 mmHg 78%
    07:00 +15°C° 0 mm 0 mps 762 mmHg 72%
    08:00 +18°C° 0 mm 1 mps 762 mmHg 66%
    09:00 +20°C° 0 mm 1 mps 762 mmHg 60%
    10:00 +21°C° 0 mm 1 mps 762 mmHg 57%
    11:00 +21°C° 0 mm 2 mps 762 mmHg 53%
    12:00 +24°C° 0 mm 2 mps 762 mmHg 50%
    13:00 +24°C° 0 mm 3 mps 762 mmHg 51%
    14:00 +24°C° 0 mm 3 mps 761 mmHg 52%
    15:00 +23°C° 0 mm 4 mps 761 mmHg 53%
    16:00 +22°C° 0 mm 4 mps 761 mmHg 60%
    17:00 +21°C° 0 mm 4 mps 761 mmHg 67%
    18:00 +20°C° 0 mm 4 mps 762 mmHg 74%
    19:00 +19°C° 0 mm 4 mps 762 mmHg 78%
    20:00 +18°C° 0 mm 4 mps 763 mmHg 82%
    21:00 +17°C° 0 mm 4 mps 763 mmHg 85%
    22:00 +17°C° 0 mm 4 mps 763 mmHg 86%
    23:00 +16°C° 0 mm 3 mps 763 mmHg 86%

    25 September, Wednesday

    Time Temperature Precipitation Wind Pressure Humidity
    00:00 +16°C° 0 mm 3 mps 763 mmHg 87%
    01:00 +16°C° 0 mm 3 mps 763 mmHg 88%
    02:00 +16°C° 0 mm 2 mps 763 mmHg 89%
    03:00 +15°C° 0 mm 2 mps 763 mmHg 90%
    04:00 +15°C° 0 mm 2 mps 763 mmHg 90%
    05:00 +15°C° 0 mm 2 mps 763 mmHg 91%
    06:00 +15°C° 0 mm 2 mps 763 mmHg 91%
    07:00 +16°C° 0 mm 2 mps 764 mmHg 85%
    08:00 +17°C° 0 mm 2 mps 764 mmHg 79%
    09:00 +19°C° 0 mm 2 mps 764 mmHg 72%
    10:00 +20°C° 0 mm 2 mps 764 mmHg 66%
    11:00 +23°C° 0 mm 2 mps 764 mmHg 60%
    12:00 +24°C° 0 mm 3 mps 764 mmHg 54%
    13:00 +24°C° 0 mm 3 mps 764 mmHg 53%
    14:00 +24°C° 0 mm 3 mps 763 mmHg 52%
    15:00 +23°C° 0 mm 4 mps 762 mmHg 52%
    16:00 +22°C° 0 mm 4 mps 762 mmHg 56%
    17:00 +21°C° 0 mm 4 mps 762 mmHg 60%
    18:00 +20°C° 0 mm 4 mps 762 mmHg 65%
    19:00 +19°C° 0 mm 4 mps 763 mmHg 69%
    20:00 +18°C° 0 mm 3 mps 763 mmHg 73%
    21:00 +17°C° 0 mm 3 mps 764 mmHg 77%
    22:00 +16°C° 0 mm 3 mps 763 mmHg 80%
    23:00 +16°C° 0 mm 3 mps 763 mmHg 82%
    Show more